Time,TemperatureF,DewpointF,PressureIn,WindDirection,WindDirectionDegrees,WindSpeedMPH,WindSpeedGustMPH,Humidity,HourlyPrecipIn,Conditions,Clouds,dailyrainin,SolarRadiationWatts/m^2,SoftwareType,DateUTC
2013-07-04 00:00:00,47.0,37.0,-100.00,SE,142,0.0,1.0,68,-99.99,,,0.00,0.000000,,2013-07-04 06:00:00,
2013-07-04 00:53:00,47.0,37.0,-100.00,SE,142,0.0,1.0,68,-99.99,,,0.00,0.000000,,2013-07-04 06:53:00,
2013-07-04 01:00:00,47.0,-99.9,-100.00,North,-999,-999.0,-999.0,-999,-99.99,,,0.00,,,2013-07-04 07:00:00,
2013-07-04 01:53:00,47.0,-99.9,-100.00,North,-999,-999.0,-999.0,-999,-99.99,,,0.00,,,2013-07-04 07:53:00,
2013-07-04 02:00:00,46.0,40.0,-100.00,SSE,158,0.0,1.0,78,-99.99,,,0.00,0.000000,,2013-07-04 08:00:00,
2013-07-04 03:00:00,45.0,40.0,-100.00,SE,134,0.0,0.0,81,-99.99,,,0.00,0.000000,,2013-07-04 09:00:00,
2013-07-04 03:52:00,45.0,40.0,-100.00,SE,134,0.0,0.0,81,-99.99,,,0.00,0.000000,,2013-07-04 09:52:00,
2013-07-04 04:00:00,44.0,40.0,-100.00,SE,143,0.0,0.0,84,-99.99,,,-99.99,0.000000,,2013-07-04 10:00:00,
2013-07-04 04:53:00,44.0,40.0,-100.00,SE,143,0.0,0.0,84,-99.99,,,-99.99,0.000000,,2013-07-04 10:53:00,
2013-07-04 05:00:00,43.0,39.0,-100.00,SE,140,0.0,1.0,86,-99.99,,,0.00,0.000000,,2013-07-04 11:00:00,
2013-07-04 05:53:00,43.0,39.0,-100.00,SE,140,0.0,1.0,86,-99.99,,,0.00,0.000000,,2013-07-04 11:53:00,
2013-07-04 06:00:00,42.0,39.0,-100.00,SE,130,0.0,1.0,89,-99.99,,,-99.99,0.900000,,2013-07-04 12:00:00,
2013-07-04 07:00:00,44.0,41.0,-100.00,SE,141,0.0,0.0,90,-99.99,,,0.00,15.600000,,2013-07-04 13:00:00,
2013-07-04 07:53:00,44.0,41.0,-100.00,SE,141,0.0,0.0,90,-99.99,,,0.00,15.600000,,2013-07-04 13:53:00,
2013-07-04 08:00:00,51.0,47.0,-100.00,SE,133,0.0,1.0,86,-99.99,,,-99.99,63.799999,,2013-07-04 14:00:00,
2013-07-04 08:53:00,51.0,47.0,-100.00,SE,133,0.0,1.0,86,-99.99,,,-99.99,63.799999,,2013-07-04 14:53:00,
2013-07-04 10:00:00,69.0,44.0,-100.00,West,269,1.0,3.0,41,-99.99,,,0.00,587.900024,,2013-07-04 16:00:00,
2013-07-04 11:00:00,72.0,36.0,-100.00,NNW,336,1.0,5.0,26,-99.99,,,0.00,818.700012,,2013-07-04 17:00:00,
2013-07-04 11:53:00,72.0,36.0,-100.00,NNW,336,1.0,5.0,26,-99.99,,,0.00,818.700012,,2013-07-04 17:53:00,
2013-07-04 12:00:00,70.0,32.0,-100.00,SSW,209,1.0,4.0,24,-99.99,,,-99.99,563.200012,,2013-07-04 18:00:00,
2013-07-04 12:52:00,70.0,32.0,-100.00,SSW,209,1.0,4.0,24,-99.99,,,-99.99,563.200012,,2013-07-04 18:52:00,
2013-07-04 13:00:00,72.0,37.0,-100.00,NNE,31,2.0,6.0,27,-99.99,,,0.00,846.799988,,2013-07-04 19:00:00,
2013-07-04 13:53:00,72.0,37.0,-100.00,NNE,31,2.0,6.0,27,-99.99,,,0.00,846.799988,,2013-07-04 19:53:00,
2013-07-04 14:00:00,70.0,36.0,-100.00,NNE,33,1.0,5.0,28,-99.99,,,0.00,397.399994,,2013-07-04 20:00:00,
2013-07-04 14:53:00,70.0,36.0,-100.00,NNE,33,1.0,5.0,28,-99.99,,,0.00,397.399994,,2013-07-04 20:53:00,
2013-07-04 17:00:00,64.0,53.0,-100.00,East,81,2.0,6.0,66,-99.99,,,0.00,164.500000,,2013-07-04 23:00:00,
2013-07-04 17:52:00,64.0,53.0,-100.00,East,81,2.0,6.0,66,-99.99,,,0.00,164.500000,,2013-07-04 23:52:00,
2013-07-04 18:00:00,67.0,45.0,-100.00,ENE,65,1.0,5.0,45,-99.99,,,0.01,148.399994,,2013-07-05 00:00:00,
2013-07-04 18:52:00,67.0,45.0,-100.00,ENE,65,1.0,5.0,45,-99.99,,,0.01,148.399994,,2013-07-05 00:52:00,
2013-07-04 19:00:00,65.0,39.0,-100.00,SE,140,2.0,6.0,38,-99.99,,,0.01,136.100006,,2013-07-05 01:00:00,
2013-07-04 19:52:00,65.0,39.0,-100.00,SE,140,2.0,6.0,38,-99.99,,,0.01,136.100006,,2013-07-05 01:52:00,
2013-07-04 20:00:00,60.0,38.0,-100.00,SE,143,1.0,4.0,44,-99.99,,,0.01,15.300000,,2013-07-05 02:00:00,
2013-07-04 20:52:00,60.0,38.0,-100.00,SE,143,1.0,4.0,44,-99.99,,,0.01,15.300000,,2013-07-05 02:52:00,
2013-07-04 21:00:00,56.0,41.0,-100.00,ESE,112,0.0,2.0,58,-99.99,,,0.00,0.900000,,2013-07-05 03:00:00,
2013-07-04 21:52:00,56.0,41.0,-100.00,ESE,112,0.0,2.0,58,-99.99,,,0.00,0.900000,,2013-07-05 03:52:00,
2013-07-04 22:00:00,54.0,43.0,-100.00,South,179,0.0,2.0,67,-99.99,,,0.00,0.000000,,2013-07-05 04:00:00,
2013-07-04 22:53:00,54.0,43.0,-100.00,South,179,0.0,2.0,67,-99.99,,,0.00,0.000000,,2013-07-05 04:53:00,
2013-07-04 23:00:00,53.0,44.0,-100.00,ESE,117,0.0,2.0,72,-99.99,,,0.00,0.000000,,2013-07-05 05:00:00,
2013-07-04 23:52:00,53.0,44.0,-100.00,ESE,117,0.0,2.0,72,-99.99,,,0.00,0.000000,,2013-07-05 05:52:00,